TimeCEST,TemperatureF,Dew PointF,Humidity,Sea Level PressureIn,VisibilityMPH,Wind Direction,Wind SpeedMPH,Gust SpeedMPH,PrecipitationIn,Events,Conditions,WindDirDegrees,DateUTC
12:00 AM,48.2,44.6,87,30.21,-9999.0,ENE,4.6,-,N/A,,Clear,60,2012-10-07 22:00:00
12:30 AM,48.2,42.8,82,30.21,-9999.0,East,4.6,-,N/A,,Clear,80,2012-10-07 22:30:00
1:00 AM,48.2,42.8,82,30.21,-9999.0,East,3.5,-,N/A,,Clear,80,2012-10-07 23:00:00
1:30 AM,46.4,42.8,87,30.21,-9999.0,East,3.5,-,N/A,,Clear,90,2012-10-07 23:30:00
2:00 AM,45,42,86,30.22,12,East,3.5,,,,Clear,90,2012-10-08 00:00:00
2:00 AM,44.6,42.8,93,30.21,-9999.0,East,3.5,-,N/A,,Clear,90,2012-10-08 00:00:00
2:30 AM,44.6,42.8,93,30.21,6.2,East,4.6,-,N/A,,Unknown,90,2012-10-08 00:30:00
3:00 AM,44.6,42.8,93,30.18,6.2,East,3.5,-,N/A,,Unknown,90,2012-10-08 01:00:00
3:30 AM,44.6,41.0,87,30.18,5.6,ESE,2.3,-,N/A,,Unknown,110,2012-10-08 01:30:00
4:00 AM,44.6,42.8,93,30.15,5.0,East,3.5,-,N/A,,Unknown,90,2012-10-08 02:00:00
4:30 AM,44.6,41.0,87,30.15,5.6,East,3.5,-,N/A,,Unknown,100,2012-10-08 02:30:00
5:00 AM,44.6,41.0,87,30.15,-9999.0,ESE,3.5,-,N/A,,Clear,110,2012-10-08 03:00:00
5:30 AM,44.6,41.0,87,30.12,-9999.0,ESE,3.5,-,N/A,,Clear,110,2012-10-08 03:30:00
6:00 AM,44.6,41.0,87,30.12,-9999.0,East,3.5,-,N/A,,Clear,100,2012-10-08 04:00:00
6:30 AM,44.6,41.0,87,30.12,-9999.0,SE,3.5,-,N/A,,Clear,130,2012-10-08 04:30:00
7:00 AM,44.6,41.0,87,30.12,-9999.0,ESE,3.5,-,N/A,,Clear,120,2012-10-08 05:00:00
7:30 AM,44.6,41.0,87,30.09,-9999.0,ESE,3.5,-,N/A,,Clear,120,2012-10-08 05:30:00
8:00 AM,45,42,86,30.12,19,East,4.6,,,,Partly Cloudy,100,2012-10-08 06:00:00
8:00 AM,44.6,42.8,93,30.09,-9999.0,ESE,3.5,-,N/A,,Clear,110,2012-10-08 06:00:00
8:30 AM,44.6,42.8,93,30.09,-9999.0,SE,4.6,-,N/A,,Clear,130,2012-10-08 06:30:00
9:00 AM,46.4,42.8,87,30.09,-9999.0,SE,4.6,-,N/A,,Clear,130,2012-10-08 07:00:00
9:30 AM,46.4,42.8,87,30.06,-9999.0,SE,8.1,-,N/A,,Clear,130,2012-10-08 07:30:00
10:30 AM,48.2,44.6,87,30.06,-9999.0,SE,4.6,-,N/A,,Clear,140,2012-10-08 08:30:00
11:00 AM,50.0,44.6,82,30.06,-9999.0,SE,5.8,-,N/A,,Clear,140,2012-10-08 09:00:00
11:30 AM,50.0,44.6,82,30.06,-9999.0,SE,8.1,-,N/A,,Clear,130,2012-10-08 09:30:00
12:00 PM,51.8,46.4,82,30.04,-9999.0,SE,8.1,-,N/A,,Clear,130,2012-10-08 10:00:00
12:30 PM,51.8,46.4,82,30.01,-9999.0,ESE,8.1,-,N/A,,Clear,110,2012-10-08 10:30:00
1:30 PM,53.6,48.2,82,30.01,6.2,SE,6.9,-,N/A,Rain,Light Rain,130,2012-10-08 11:30:00
2:00 PM,53,47,75,30.01,12,SE,8.1,,,Rain,Light Rain,130,2012-10-08 12:00:00
2:00 PM,53.6,48.2,82,30.01,6.2,SE,8.1,-,N/A,Rain,Light Rain,130,2012-10-08 12:00:00
2:30 PM,53.6,46.4,77,29.98,6.2,SE,8.1,-,N/A,Rain,Light Rain,140,2012-10-08 12:30:00
3:00 PM,55.4,48.2,77,29.98,6.2,SE,8.1,-,N/A,Rain,Light Rain,130,2012-10-08 13:00:00
3:30 PM,53.6,48.2,82,29.95,6.2,ESE,10.4,-,N/A,Rain,Light Rain,120,2012-10-08 13:30:00
4:00 PM,55.4,48.2,77,29.95,6.2,SSE,10.4,-,N/A,Rain,Light Rain,150,2012-10-08 14:00:00
4:30 PM,53.6,50.0,88,29.92,5.0,SE,11.5,-,N/A,Rain,Light Rain,130,2012-10-08 14:30:00
5:00 PM,53.6,50.0,88,29.92,5.0,SSE,10.4,-,N/A,Rain,Light Rain,150,2012-10-08 15:00:00
5:30 PM,53.6,50.0,88,29.89,3.1,SE,9.2,-,N/A,Rain,Light Rain,140,2012-10-08 15:30:00
6:00 PM,53.6,51.8,94,29.89,1.2,SSE,6.9,-,N/A,,Light Drizzle,160,2012-10-08 16:00:00
6:30 PM,53.6,51.8,94,29.89,1.2,SE,8.1,-,N/A,,Light Drizzle,140,2012-10-08 16:30:00
7:00 PM,53.6,51.8,94,29.89,1.2,SE,4.6,-,N/A,Rain,Light Rain,140,2012-10-08 17:00:00
7:30 PM,53.6,51.8,94,29.89,1.9,SE,5.8,-,N/A,,Light Drizzle,130,2012-10-08 17:30:00
8:00 PM,53,52,95,29.88,2,SE,5.8,,,Rain,Light Drizzle,140,2012-10-08 18:00:00
8:30 PM,53.6,51.8,94,29.86,3.1,SE,5.8,-,N/A,,Overcast,130,2012-10-08 18:30:00
9:00 PM,53.6,51.8,94,29.86,1.9,ESE,3.5,-,N/A,,Overcast,120,2012-10-08 19:00:00
9:06 PM,53.6,51.8,94,29.86,1.9,ESE,3.5,-,N/A,,Overcast,120,2012-10-08 19:06:00
9:30 PM,53.6,51.8,94,29.86,1.6,SE,4.6,-,N/A,,Light Drizzle,130,2012-10-08 19:30:00
10:00 PM,53.6,51.8,94,29.86,0.9,SE,3.5,-,N/A,,Light Drizzle,130,2012-10-08 20:00:00
10:30 PM,53.6,51.8,94,29.83,0.9,ESE,2.3,-,N/A,,Light Drizzle,110,2012-10-08 20:30:00
11:00 PM,53.6,51.8,94,29.83,0.9,East,2.3,-,N/A,,Light Drizzle,90,2012-10-08 21:00:00
11:30 PM,53.6,51.8,94,29.83,0.9,Calm,Calm,-,N/A,,Light Drizzle,0,2012-10-08 21:30:00